User: anonymous   Login
Location: Unspecified
(34.1750°S, 150.8048°E)
Time: 08:48:22
(UTC+11:00)
Language:

NANOSAT C BR1 - Orbit

View from above orbital plane
View from above orbital plane
View from above satellite
View from above satellite

Ground track
Ground track

The orbit data is extracted from the following two-line orbital elements,

1 40024U 14033Q   24051.87835536  .00009079  00000-0  72571-3 0  9998
2 40024  98.0606  19.4806 0010224 183.0279 177.0883 15.00432890525646
Epoch (UTC): 20 February 2024 21:04:49
Eccentricity: 0.0010224
inclination: 98.0606°
perigee height: 558 km
apogee height: 572 km
right ascension of ascending node: 19.4806°
argument of perigee: 183.0279°
revolutions per day: 15.00432890
mean anomaly at epoch: 177.0883°
orbit number at epoch: 52564

The dashed part of the orbit path shows where the satellite is in the earth's shadow,  

DLR